Location: Fredericksburg
(30.2750°N, 98.8720°W)
Time: 00:00:28
(UTC-05:00)

Daily predictions for brighter satellites

Satellite Brightness Start Highest point End
(mag) Time Altitude Azimuth Time Altitude Azimuth Time Altitude Azimuth
Cosmos 2297 Rocket 4.2 04:29:44 23° NNE 04:29:44 23° NNE 04:31:48 10° NNE
USA 215 4.0 04:22:52 10° ESE 04:28:54 46° NE 04:28:54 46° NE
Okean O Rocket 4.4 04:43:30 10° NNE 04:44:06 14° NNE 04:44:06 14° NNE
NOSS 3-2 (C) 4.4 04:42:06 10° NNW 04:49:42 60° ENE 04:57:44 10° SE
PAYLOAD B 4.2 05:07:56 10° NNE 05:13:09 76° ENE 05:13:09 76° ENE
ADEOS II 3.2 05:19:26 10° NNE 05:24:25 43° E 05:29:23 10° S
OTV 4 3.8 05:30:22 10° ESE 05:30:22 10° ESE 05:30:22 10° ESE
Cosmos 1000 Rocket 4.5 05:26:44 15° S 05:32:10 85° E 05:38:30 10° N
ATLAS 5 CENTAUR R/B 2.3 05:30:34 39° NW 05:33:04 76° WSW 05:39:38 10° SSE
Cosmos 2237 Rocket 3.5 05:38:15 25° S 05:38:15 25° S 05:40:33 10° S
CZ-4B R/B 3.1 05:29:48 10° N 05:35:12 68° WNW 05:35:34 65° W
CZ-4B R/B 4.1 05:32:30 10° N 05:35:15 36° NNW 05:35:15 36° NNW
Meteor 2-4 Rocket 3.9 05:40:14 53° WNW 05:40:14 53° WNW 05:45:53 10° N
Cosmos 2298 Rocket 4.2 05:42:31 50° NW 05:42:31 50° NW 05:47:15 10° N
Cosmos 292 Rocket 3.6 05:40:32 10° NNW 05:45:24 87° WSW 05:50:15 10° SSE
GOES 2 Rocket 3.8 05:44:17 52° WSW 05:45:44 74° S 05:53:02 10° E
Cosmos 2173 Rocket 3.9 05:41:43 10° N 05:47:50 90° W 05:54:01 10° S
Cosmos 967 Rocket 4.4 05:45:13 34° SW 05:48:16 79° WNW 05:54:42 10° NNE
Hubble Space Telescope 2.9 05:50:06 15° S 05:50:06 15° S 05:51:23 10° SSE
Meteor PRIRODA 4.3 05:45:09 10° NNE 05:48:48 54° E 05:51:32 16° S
Cosmos 2058 Rocket 2.9 05:44:30 10° N 05:48:51 88° E 05:53:13 10° S
Cosmos 990 Rocket 3.9 05:46:28 23° SSW 05:49:46 86° ESE 05:55:02 10° NNE
Meteor 1-23 Rocket 4.4 05:49:33 46° W 05:49:46 46° W 05:55:13 10° N
Cosmos 1459 Rocket 3.9 05:47:20 10° N 05:53:41 78° W 05:59:56 10° S
Thor Agena Rocket 3.6 05:48:57 10° SSE 05:54:14 84° ENE 05:59:33 10° NNW
Aureole 2 Rocket 3.2 05:51:35 10° N 05:54:44 45° ENE 05:57:35 10° SSE
Okean-O 2.6 05:50:23 10° NNE 05:54:50 85° ESE 05:59:06 11° SSW
Cosmos 2123 Rocket 4.2 05:49:09 10° S 05:55:15 69° E 06:01:23 10° N
Cosmos 2150 Rocket 4.3 05:55:43 42° WNW 05:55:53 42° WNW 06:00:46 10° N
SL-16 R/B 2.1 05:50:45 10° NNW 05:56:27 89° WSW 06:02:06 10° SSE
COBE Rocket 4.5 05:54:22 10° NNE 05:58:59 54° E 06:03:30 10° S
Meteor 2-9 Rocket 4.2 05:53:47 10° NNW 05:59:26 64° W 06:05:10 10° S
Meteor 2-15 4.3 05:54:30 10° S 06:00:32 76° W 06:06:36 10° N
NOSS 3-2 (A) 4.4 05:56:36 21° WNW 06:01:09 39° WSW 06:08:33 10° S
Cosmos 2227 Rocket 4.3 06:03:30 10° NW 06:03:30 10° NW 06:03:47 10° NW
Delta 142 3.7 06:03:25 41° WSW 06:04:49 60° S 06:08:59 10° ESE
Fermi 4.4 06:08:01 34° SW 06:09:00 41° S 06:12:49 10° ESE
Cosmos 1626 Rocket 3.4 06:06:14 10° S 06:10:36 77° W 06:14:57 10° N
Cosmos 2297 Rocket 4.0 06:11:35 14° NW 06:11:35 14° NW 06:13:34 10° NNW
USA 215 3.7 06:05:57 10° SSE 06:11:58 39° SW 06:16:19 18° WNW
OAO 2 Rocket 3.6 06:15:01 27° W 06:17:48 62° NNW 06:23:05 10° ENE
CZ-3A R/B 3.0 06:12:29 19° WSW 06:18:54 41° S 06:22:02 10° ESE
Meteor 2-15 Rocket 4.4 06:14:58 10° SSW 06:20:56 59° W 06:26:54 10° N
ADEOS Rocket 3.7 06:18:47 10° N 06:24:58 37° WNW 06:30:34 10° SW
Cosmos 2098 Rocket 3.3 06:20:38 10° NNW 06:25:01 63° W 06:30:37 10° S
Delta 2 Rocket 3.2 06:24:08 22° WNW 06:26:29 69° NNE 06:30:00 10° ESE
Cosmos 1125 Rocket 3.7 06:22:14 10° S 06:27:23 72° ESE 06:32:34 10° NNE
CENTAUR R/B 3.3 06:23:34 10° NNW 06:31:40 82° ENE 06:40:02 10° SSE
Cosmos 1602 Rocket 4.0 06:30:36 10° SSW 06:34:43 38° W 06:38:51 10° NNW
CSL-04 DEB 4.5 06:31:33 10° N 06:35:53 71° WNW 06:40:07 10° SSW
Cosmos 1603 3.8 06:38:20 10° NNW 06:44:05 84° ENE 06:49:43 10° SSE
Cosmos 2263 Rocket 2.8 06:39:12 10° S 06:44:40 62° ESE 06:50:09 10° NNE
Cosmos 2233 Rocket 4.1 06:43:21 10° N 06:49:37 83° E 06:55:48 10° S
CZ-3 Stage 3 4.3 06:41:42 10° WSW 06:50:59 47° SSE 06:54:11 10° E
NOAA 6 4.1 06:46:57 10° N 06:52:02 57° WNW 06:57:05 10° SSW
Meteor 1-31 Rocket 3.6 06:50:20 10° NNW 06:53:45 29° WNW 06:57:11 10° SW
Cosmos 2228 4.3 06:51:29 10° NW 06:54:38 20° W 06:57:45 10° SW
Tiangong 1 3.8 06:59:06 10° N 06:59:55 11° NNE 07:00:44 10° NNE
Iridium 4 Rocket 3.5 06:55:04 10° S 07:00:07 83° E 07:04:43 10° N
OTV 4 2.6 07:02:03 10° WSW 07:02:59 11° SW 07:03:56 10° SSW
ADEOS II 3.5 07:00:19 10° NNW 07:03:45 18° WNW 07:07:12 10° WSW
Cosmos 1812 Rocket 4.1 07:01:39 10° NNW 07:05:47 39° W 07:09:56 10° SSW
Cosmos 1725 Rocket 4.4 07:00:37 10° NNW 07:06:24 40° W 07:12:06 10° SSW
